Simultaneous Nadir Overpasses (SNOs) Predictions

Prediction of SNOs between GOES-16 and NOAA-20 Satellite Orbit:

Table of predicted SNOs for the next 14.0 days since TLE Epoch: 9/5/2025
Index Date Time (GOES-16) GOES-16 Lat,Lon NOAA-20 Lat,Lon Distance(km) Time Diff (sec)
1 09/06/2025 20:39:14 0.12,-104.67 -0.83,-108.91 483.21 80
2 09/07/2025 20:23:09 0.12,-104.67 0.17,-104.37 33.68 80
3 09/10/2025 08:26:11 -0.12,-104.66 -0.03,-105.11 50.55 80
4 09/11/2025 08:04:45 -0.12,-104.66 -1.03,-100.57 465.79 80
5 09/12/2025 20:26:40 0.12,-104.66 -0.16,-105.86 137.85 80
6 09/13/2025 20:10:36 0.13,-104.65 0.90,-101.34 378.56 80
7 09/15/2025 08:32:22 -0.13,-104.64 0.30,-106.60 222.69 80
8 09/16/2025 08:10:57 -0.14,-104.63 -0.71,-102.06 293.36 80
9 09/17/2025 20:32:52 0.14,-104.63 -0.47,-107.36 310.64 80
10 09/18/2025 20:16:47 0.14,-104.63 0.54,-102.82 206.17 80
